SCP
-0 -0 -0 -0 -0 0 0 0 0 0 -0 -0 -0 -0 -0 -0 -0 -0 -0 -0 -0 -0 -0 0 -0 0 0 0 0 0 -0 -0 -0
-0 -0 -0 -0 -0 -0 -0 -0 -0 -0 -0 -0 -0 -0 -0 -0 -0 -0 0 -0 -0 -0 -0 -0 -0 -0 0 0 0 0 -0 -0 -0
-0 -0 -0 -0 0 -0 -0 -0 -0 -0 -0 -0 -0 -0 -0 -0 -0 -0 -0 -0 0 -0 -0 -0 0 -0 -0 -0 -0 -0 0 0 0
-0 -0 -0 -0 -0 -0 -0 -0 -0 -0 -0 0 0 0 0 0 0 -0 0 -0 0 0 0 0 -0 -0 -0 -0 -0 -0 -0 0 0
-0 -0 -0 -0 -0 -0 0 -0 -0 -0 -0 0 0 0 0 0 0 0 0 0 -0 -0 -0 -0 -0 0 0 0 0 0 0 -0 0
-1 -1 -0 -0 -0 -0 0 0 0 0 0 0 0 0 0 0 0 0 0 0 0 0 0 0 0 0 0 0 0 0 0 0 0
-1 -0 -0 0 0 0 0 0 0 0 0 0 0 0 0 0 0 0 0 0 0 0 0 0 0 0 0 0 0 0 0 0 0
-0 -0 -0 0 0 0 0 0 0 0 0 0 0 0 0 0 0 0 0 0 0 0 0 0 0 0 0 0 1 1 0 0 0
0 0 0 0 0 0 0 0 0 0 0 0 0 0 0 0 0 0 0 0 0 0 0 0 0 0 0 0 0 1 1 0 1
0 0 0 0 0 0 0 0 0 0 0 0 0 0 0 0 0 0 0 0 0 0 0 0 0 0 0 0 0 0 0 0 1
0 0 0 0 0 0 0 0 0 0 0 0 0 0 0 0 0 0 0 0 0 0 0 0 0 0 0 0 0 0 0 0 0
0 0 0 0 0 0 0 0 0 0 0 0 0 0 0 0 0 0 0 0 0 0 0 0 0 0 0 0 0 0 0 0 0
0 0 0 0 0 0 0 0 0 0 0 0 0 0 0 0 0 0 0 0 0 0 0 0 0 0 0 0 0 0 0 0 0
0 0 0 0 0 0 0 0 0 0 0 0 0 0 0 0 0 0 0 0 0 0 0 0 0 0 0 0 0 0 0 0 0
0 0 0 0 0 0 0 0 0 0 0 0 0 0 0 0 0 0 0 0 0 0 0 0 0 0 0 0 0 0 0 0 0
0 0 0 0 0 0 0 0 0 0 0 0 0 0 0 0 0 0 0 0 0 0 0 0 0 0 0 0 0 0 0 0 0
0 0 0 0 0 0 0 0 0 0 0 0 0 0 0 0 0 0 0 0 0 0 0 0 0 0 0 0 0 0 0 0 0
0 0 0 0 0 0 0 0 0 0 0 0 0 0 0 0 0 0 0 0 0 0 0 0 0 0 0 0 0 0 0 0 0
0 0 0 0 0 0 0 0 0 0 0 0 0 0 0 0 0 0 0 0 0 0 0 0 0 0 0 0 0 0 0 0 0
0 0 0 0 0 0 0 0 0 0 0 0 0 0 0 0 0 0 0 0 0 0 0 0 0 0 0 0 0 0 0 0 0
Wind_Speed_500mb
41 39 35 30 27 21 17 15 12 12 16 19 20 19 16 15 14 12 12 12 12 11 14 15 15 19 23 26 29 32 30 28 23
42 39 35 32 28 25 20 17 14 12 13 8 9 15 18 16 14 12 11 11 12 12 17 18 20 20 23 26 28 34 34 31 26
41 39 32 27 22 19 18 14 13 15 15 11 13 17 20 19 19 16 15 14 10 13 16 19 24 20 22 26 31 36 42 38 36
38 38 35 26 19 14 13 15 14 13 9 5 2 7 12 16 17 17 19 19 20 17 17 20 24 25 25 26 29 35 42 43 40
31 29 28 31 28 27 26 28 28 27 25 21 17 15 13 12 15 19 25 19 22 27 24 20 22 25 28 29 31 32 40 43 41
37 37 36 34 35 34 33 34 31 26 23 20 17 21 23 22 17 13 12 16 17 22 30 30 24 28 31 33 34 35 37 42 44
45 41 40 38 35 32 29 25 24 20 16 14 15 19 23 23 17 16 16 18 17 16 19 21 26 30 35 35 35 37 40 44 48
42 42 41 39 37 31 26 22 18 13 7 6 10 15 20 22 24 22 21 20 22 19 16 17 19 21 26 33 41 42 43 47 51
45 42 40 37 33 29 25 20 13 6 5 6 10 15 19 25 29 32 33 33 34 34 31 24 23 23 25 27 29 36 46 53 56
47 46 41 35 30 27 20 15 10 5 7 10 15 18 21 27 34 38 43 46 47 45 40 35 34 32 32 34 35 40 44 42 45
47 44 37 31 24 21 16 11 6 9 9 15 19 20 23 25 32 37 41 43 45 44 38 39 40 41 42 42 44 45 51 45 49
42 40 34 27 22 18 11 6 9 12 15 20 21 22 22 24 26 29 31 33 36 39 41 41 40 40 43 46 48 48 56 50 47
36 32 27 22 16 9 3 14 18 20 20 22 23 24 27 29 34 37 37 36 36 36 36 41 41 42 41 45 50 52 56 58 52
33 26 21 16 8 2 8 13 15 16 18 19 23 31 38 43 44 45 43 42 46 48 51 52 52 48 48 48 49 48 50 54 55
27 21 14 7 2 2 5 8 13 15 17 29 34 36 40 41 43 43 38 41 45 39 40 43 46 50 50 42 41 44 46 48 50
21 15 8 4 2 3 5 11 14 16 28 32 33 34 37 39 38 37 33 39 40 33 35 40 44 43 41 40 36 38 41 49 50
15 9 6 2 2 3 6 14 17 21 26 30 33 37 37 31 32 32 33 35 31 34 34 39 42 39 39 41 42 40 32 38 38
12 9 4 3 4 3 6 13 16 19 24 28 28 28 28 30 34 34 34 35 33 34 33 36 41 42 40 43 46 43 44 49 51
14 11 8 5 5 5 8 12 13 20 23 26 27 29 31 33 35 37 37 40 44 38 40 39 39 39 39 43 45 49 51 50 48
18 13 10 10 8 8 9 10 14 16 19 22 23 27 27 29 31 34 37 39 41 49 44 35 30 31 33 37 43 47 47 45 46
Wind_Direction_500mb
165 173 176 177 177 183 201 213 216 220 225 232 232 238 255 273 285 282 272 278 244 256 250 245 237 240 231 227 226 227 233 235 243
170 174 176 180 187 182 194 213 207 199 179 191 221 238 245 257 274 278 240 249 249 252 244 237 242 236 231 231 232 227 227 239 238
170 166 171 172 180 183 182 200 205 208 241 246 249 259 255 254 272 279 281 274 303 274 245 248 232 240 238 237 235 229 229 231 242
165 162 158 158 157 152 154 140 137 142 147 170 224 278 264 272 281 268 256 269 292 288 281 267 257 251 243 239 237 236 236 233 233
165 158 153 144 135 127 123 116 113 109 103 89 68 43 18 340 315 290 289 273 275 274 272 264 256 245 244 240 238 237 239 240 239
157 149 144 137 129 124 119 116 112 108 98 76 39 12 7 351 340 341 332 319 293 269 264 266 259 257 248 243 241 239 238 239 241
157 153 146 142 137 133 128 122 115 105 87 53 19 4 353 343 337 329 326 318 315 307 296 284 274 260 253 249 245 242 240 243 246
159 158 154 149 148 146 142 135 131 119 86 18 354 345 334 324 314 313 315 316 317 314 303 291 290 280 268 259 253 254 253 248 245
167 163 158 157 156 155 151 149 148 164 234 267 301 303 310 306 304 304 303 304 303 303 300 293 286 282 277 271 269 262 254 256 256
170 167 166 165 162 154 154 156 166 193 254 289 297 296 295 290 288 288 290 291 293 293 292 289 284 279 274 273 273 272 271 269 268
170 168 164 162 162 153 148 159 171 263 281 293 296 296 293 292 295 296 295 294 292 290 289 283 280 277 276 275 273 271 274 274 272
168 165 158 153 153 156 164 179 285 296 299 295 302 303 301 301 299 298 299 299 298 295 294 291 287 282 275 272 271 267 272 274 271
157 152 146 147 151 150 194 280 296 300 305 307 311 307 308 306 305 304 302 299 298 294 291 291 290 286 282 278 276 273 271 273 270
147 143 142 144 148 177 283 292 303 316 319 315 310 307 308 308 307 306 302 298 296 294 292 288 287 288 285 282 280 277 271 268 264
141 142 145 145 154 249 288 312 322 318 311 300 309 306 307 305 305 304 301 298 301 299 290 289 291 289 285 285 287 289 290 285 271
147 144 147 137 154 296 304 316 325 316 309 319 316 312 310 312 316 319 312 304 305 304 298 300 300 301 291 290 283 282 284 290 291
142 143 145 139 56 337 319 313 322 326 326 325 321 319 322 326 319 322 328 323 313 305 303 305 308 309 301 298 297 297 291 280 284
144 142 122 73 55 9 342 334 335 334 335 337 339 343 341 332 327 325 322 323 318 309 304 297 305 303 302 298 292 288 275 273 271
143 141 121 89 45 29 1 359 343 346 349 350 342 338 338 336 333 330 328 325 319 318 311 304 297 302 305 305 299 298 296 290 279
138 127 112 97 76 49 29 7 1 352 353 349 351 349 349 351 347 341 338 337 334 329 333 333 329 319 312 312 313 304 295 288 275
Wind_Speed_850mb
41 39 35 30 27 21 17 15 12 12 16 19 20 19 16 15 14 12 12 12 12 11 14 15 15 19 23 26 29 32 30 28 23
42 39 35 32 28 25 20 17 14 12 13 8 9 15 18 16 14 12 11 11 12 12 17 18 20 20 23 26 28 34 34 31 26
41 39 32 27 22 19 18 14 13 15 15 11 13 17 20 19 19 16 15 14 10 13 16 19 24 20 22 26 31 36 42 38 36
38 38 35 26 19 14 13 15 14 13 9 5 2 7 12 16 17 17 19 19 20 17 17 20 24 25 25 26 29 35 42 43 40
31 29 28 31 28 27 26 28 28 27 25 21 17 15 13 12 15 19 25 19 22 27 24 20 22 25 28 29 31 32 40 43 41
37 37 36 34 35 34 33 34 31 26 23 20 17 21 23 22 17 13 12 16 17 22 30 30 24 28 31 33 34 35 37 42 44
45 41 40 38 35 32 29 25 24 20 16 14 15 19 23 23 17 16 16 18 17 16 19 21 26 30 35 35 35 37 40 44 48
42 42 41 39 37 31 26 22 18 13 7 6 10 15 20 22 24 22 21 20 22 19 16 17 19 21 26 33 41 42 43 47 51
45 42 40 37 33 29 25 20 13 6 5 6 10 15 19 25 29 32 33 33 34 34 31 24 23 23 25 27 29 36 46 53 56
47 46 41 35 30 27 20 15 10 5 7 10 15 18 21 27 34 38 43 46 47 45 40 35 34 32 32 34 35 40 44 42 45
47 44 37 31 24 21 16 11 6 9 9 15 19 20 23 25 32 37 41 43 45 44 38 39 40 41 42 42 44 45 51 45 49
42 40 34 27 22 18 11 6 9 12 15 20 21 22 22 24 26 29 31 33 36 39 41 41 40 40 43 46 48 48 56 50 47
36 32 27 22 16 9 3 14 18 20 20 22 23 24 27 29 34 37 37 36 36 36 36 41 41 42 41 45 50 52 56 58 52
33 26 21 16 8 2 8 13 15 16 18 19 23 31 38 43 44 45 43 42 46 48 51 52 52 48 48 48 49 48 50 54 55
27 21 14 7 2 2 5 8 13 15 17 29 34 36 40 41 43 43 38 41 45 39 40 43 46 50 50 42 41 44 46 48 50
21 15 8 4 2 3 5 11 14 16 28 32 33 34 37 39 38 37 33 39 40 33 35 40 44 43 41 40 36 38 41 49 50
15 9 6 2 2 3 6 14 17 21 26 30 33 37 37 31 32 32 33 35 31 34 34 39 42 39 39 41 42 40 32 38 38
12 9 4 3 4 3 6 13 16 19 24 28 28 28 28 30 34 34 34 35 33 34 33 36 41 42 40 43 46 43 44 49 51
14 11 8 5 5 5 8 12 13 20 23 26 27 29 31 33 35 37 37 40 44 38 40 39 39 39 39 43 45 49 51 50 48
18 13 10 10 8 8 9 10 14 16 19 22 23 27 27 29 31 34 37 39 41 49 44 35 30 31 33 37 43 47 47 45 46
Wind_Direction_850mb
165 173 176 177 177 183 201 213 216 220 225 232 232 238 255 273 285 282 272 278 244 256 250 245 237 240 231 227 226 227 233 235 243
170 174 176 180 187 182 194 213 207 199 179 191 221 238 245 257 274 278 240 249 249 252 244 237 242 236 231 231 232 227 227 239 238
170 166 171 172 180 183 182 200 205 208 241 246 249 259 255 254 272 279 281 274 303 274 245 248 232 240 238 237 235 229 229 231 242
165 162 158 158 157 152 154 140 137 142 147 170 224 278 264 272 281 268 256 269 292 288 281 267 257 251 243 239 237 236 236 233 233
165 158 153 144 135 127 123 116 113 109 103 89 68 43 18 340 315 290 289 273 275 274 272 264 256 245 244 240 238 237 239 240 239
157 149 144 137 129 124 119 116 112 108 98 76 39 12 7 351 340 341 332 319 293 269 264 266 259 257 248 243 241 239 238 239 241
157 153 146 142 137 133 128 122 115 105 87 53 19 4 353 343 337 329 326 318 315 307 296 284 274 260 253 249 245 242 240 243 246
159 158 154 149 148 146 142 135 131 119 86 18 354 345 334 324 314 313 315 316 317 314 303 291 290 280 268 259 253 254 253 248 245
167 163 158 157 156 155 151 149 148 164 234 267 301 303 310 306 304 304 303 304 303 303 300 293 286 282 277 271 269 262 254 256 256
170 167 166 165 162 154 154 156 166 193 254 289 297 296 295 290 288 288 290 291 293 293 292 289 284 279 274 273 273 272 271 269 268
170 168 164 162 162 153 148 159 171 263 281 293 296 296 293 292 295 296 295 294 292 290 289 283 280 277 276 275 273 271 274 274 272
168 165 158 153 153 156 164 179 285 296 299 295 302 303 301 301 299 298 299 299 298 295 294 291 287 282 275 272 271 267 272 274 271
157 152 146 147 151 150 194 280 296 300 305 307 311 307 308 306 305 304 302 299 298 294 291 291 290 286 282 278 276 273 271 273 270
147 143 142 144 148 177 283 292 303 316 319 315 310 307 308 308 307 306 302 298 296 294 292 288 287 288 285 282 280 277 271 268 264
141 142 145 145 154 249 288 312 322 318 311 300 309 306 307 305 305 304 301 298 301 299 290 289 291 289 285 285 287 289 290 285 271
147 144 147 137 154 296 304 316 325 316 309 319 316 312 310 312 316 319 312 304 305 304 298 300 300 301 291 290 283 282 284 290 291
142 143 145 139 56 337 319 313 322 326 326 325 321 319 322 326 319 322 328 323 313 305 303 305 308 309 301 298 297 297 291 280 284
144 142 122 73 55 9 342 334 335 334 335 337 339 343 341 332 327 325 322 323 318 309 304 297 305 303 302 298 292 288 275 273 271
143 141 121 89 45 29 1 359 343 346 349 350 342 338 338 336 333 330 328 325 319 318 311 304 297 302 305 305 299 298 296 290 279
138 127 112 97 76 49 29 7 1 352 353 349 351 349 349 351 347 341 338 337 334 329 333 333 329 319 312 312 313 304 295 288 275